Regional Weather Roundup
Issued by NWS

Home | Current Version | Previous Version | Graphics & Text | Print | Product List | Glossary On
Versions: 1 2 3 4 5 6 7 8 9 10 11 12 13 14 15 16 17 18 19 20 21 22 23 24 25 26 27 28 29 30 31 32 33 34 35 36 37 38 39 40 41 42 43 44 45 46 47 48 49 50
000
ASUS43 KMKX 242325
RWRWI

WISCONSIN REGIONAL WEATHER ROUNDUP
NATIONAL WEATHER SERVICE MILWAUKEE/SULLIVAN WI
600 PM CDT FRI OCT 24 2014

NOTE: "FAIR" INDICATES FEW OR NO CLOUDS BELOW 12,000 FEET WITH NO
SIGNIFICANT WEATHER AND/OR OBSTRUCTIONS TO VISIBILITY.

WIZ001-002-006>008-014>016-023>028-250000-
NORTHWEST WISCONSIN

CITY           SKY/WX    TMP DP  RH WIND       PRES   REMARKS
SUPERIOR ARPT  CLEAR     65  52  63 SW13      29.75R
ASHLAND        CLEAR     60  52  74 SW14      29.78S
HAYWARD        CLOUDY    58  51  78 S12       29.83S
SIREN          MOCLDY    58  52  79 S6        29.83R
CUMBERLAND     CLOUDY    55  54  94 S5        29.85S
RICE LAKE      CLOUDY    57  53  86 S6        29.87R
CHETEK         CLOUDY    57  54  89 S5        29.86S
LADYSMITH      CLOUDY    58  52  80 S7        29.87F
EAU CLAIRE     CLOUDY    57  55  93 S7        29.87S FOG
MENOMONIE      CLOUDY    58  56  95 S5        29.87S FOG
NEW RICHMOND   MOCLDY    56  55  94 S7        29.85S FOG
OSCEOLA        MOCLDY    58  56  96 S5        29.87R
$$

WIZ003>005-009-010-017-018-250000-
NORTH CENTRAL WISCONSIN

CITY           SKY/WX    TMP DP  RH WIND       PRES   REMARKS
MANITOWISH WTR CLOUDY    58  49  73 SW14      29.82S
ARBOR VITAE    CLOUDY    59  51  74 SW9       29.83F
WOODRUFF       CLOUDY    59  51  74 SW9       29.83F
RHINELANDER    CLOUDY    56  45  66 SW9       29.87S
EAGLE RIVER    CLOUDY    57  43  59 SW5       29.83F
LAND O LAKES   CLOUDY    58  43  57 S6        29.83F
PHILLIPS       CLOUDY    56  49  77 SW9       29.84F
TOMAHAWK       CLOUDY    55  47  74 CALM      29.87S
MEDFORD        CLOUDY    54  49  83 CALM      29.87S
MERRILL        CLOUDY    56  48  74 SW9       29.88R
$$

WIZ029-030-035-036-043>047-250000-
CENTRAL WISCONSIN

CITY           SKY/WX    TMP DP  RH WIND       PRES   REMARKS
WAUSAU         CLOUDY    56  48  74 S5        29.86F
MOSINEE        CLOUDY    55  52  88 S6        29.89S
MARSHFIELD     CLOUDY    58  51  78 S7        29.88R
STEVENS POINT  CLOUDY    55  49  81 S5        29.90R
WAUPACA        CLOUDY    56  52  85 SE3       29.90S
WAUTOMA        CLOUDY    57  51  80 CALM      29.91S
WISC RAPIDS    CLOUDY    58  50  75 S5        29.90R
CAMP DOUGLAS   CLOUDY    61  55  82 S8        29.89R
$$

WIZ011>013-019>022-031-037>040-048>050-250000-
NORTHEAST WISCONSIN

CITY           SKY/WX    TMP DP  RH WIND       PRES   REMARKS
ANTIGO         CLOUDY    53  49  87 S3        29.88S
SHAWANO        CLOUDY    55  49  82 S3        29.90S
OCONTO         CLEAR     49  49 100 S3        29.90S
STURGEON BAY   PTCLDY    50  45  81 S8        29.91S
GREEN BAY      MOCLDY    52  49  89 S6        29.91S FOG
MANITOWOC      CLEAR     50  49  96 S6        29.93S FOG
APPLETON       MOCLDY    52  48  87 VRB5      29.91F
CLINTONVILLE   CLOUDY    54  50  87 S3        29.90S
OSHKOSH        CLOUDY    54  50  86 S5        29.91S
$$

WIZ032>034-041-042-053>061-250000-
SOUTHWEST WISCONSIN

CITY           SKY/WX    TMP DP  RH WIND       PRES   REMARKS
LA CROSSE      CLOUDY    61  56  83 SW8       29.89R
SPARTA         CLOUDY    60  55  82 SW6       29.90R
VIROQUA        CLOUDY    57  57 100 SW7       29.91R
BOSCOBEL       CLOUDY    60  57  89 CALM      29.91S FOG
PRAIRIE DU CHI CLOUDY    60  56  88 CALM      29.90S
PLATTEVILLE    CLOUDY    60  55  83 S7        29.92S
$$

WIZ056-057-062-063-064-067-068-250000-
SOUTH CENTRAL WISCONSIN

CITY           SKY/WX    TMP DP  RH WIND       PRES   REMARKS
REEDSBURG      CLOUDY    59  51  74 S5        29.90R
BARABOO/DELLS  CLOUDY    59  48  67 S7        29.90R
LONE ROCK      CLOUDY    64  53  67 S3        29.91S
MINERAL POINT  CLOUDY    61  54  77 S3        29.92S
MADISON        MOCLDY    60  50  69 S8        29.90F
MIDDLETON      CLOUDY    61  50  68 SW3       29.91S
WATERTOWN      MOCLDY    55  51  89 CALM      29.92S
MONROE         MOCLDY    57  50  77 S7        29.91S
JANESVILLE     CLEAR     59  48  67 S6        29.92F
$$

WIZ051-052-058>065-066-070>072-250000-
SOUTHEAST WISCONSIN

CITY           SKY/WX    TMP DP  RH WIND       PRES   REMARKS
MILWAUKEE      MOCLDY    58  48  69 SW5       29.94S
WAUKESHA       CLEAR     55  48  76 S5        29.95F
MILWAUKEE/TIMM MOCLDY    59  46  63 SW7       29.94F
RACINE         PTCLDY    52  49  89 S8        29.96F FOG
BURLINGTON     MOCLDY    53  49  86 CALM      29.94S
KENOSHA        PTCLDY    54  50  86 SE5       29.95S
FOND DU LAC    CLOUDY    55  50  83 S6        29.91S
SHEBOYGAN      CLEAR     54  49  83 SE3       29.92S
WEST BEND      MOCLDY    57  46  67 CALM      29.92S
JUNEAU         PTCLDY    53  49  86 S7        29.93S
$$

LSZ147-162-250000-
LAKE SUPERIOR

STATION/POSITION TIME  TEMP    WIND        PRES    WAVE
                       AIR SEA DIR/SP/G            HT/PER
                 (UTC) (F)     (DEG/KT/KT) (MB)    (FT/S)
W MID LAKE BUOY  2250   49 47  170/  4/  6 1006.4F   1
DEVILS ISLAND    2300   60     200/  7/ 11 1006.6F
PORT WING        2200   68     190/ 15/ 20 1007.1F
SAXON HARBOR     2200   68     210/ 12/ 16 1007.8S
$$

LMZ867-665-643>646-250000-
LAKE MICHIGAN

STATION/POSITION TIME  TEMP    WIND        PRES    WAVE
                       AIR SEA DIR/SP/G            HT/PER
                 (UTC) (F)     (DEG/KT/KT) (MB)    (FT/S)
CHAMBERS ISLAND  2200   52     190/  4/  7 1012.9S
N MID LAKE BUOY  2250   49 51  200/ 16/ 17 1012.9F   2/ 4
NORTHPORT PIER   2200   53     160/  5/  7 1012.5F
SISTER BAY       2213          190/  6/  7   N/A
ALGOMA LAKESHORE 2156          230/ 17/ 20   N/A
KEWAUNEE LAKESHO 2300   50     180/ 11/ 13 1012.4S
SHEBOYGAN LAKESH 2300   51 51  180/ 12/ 12 1013.9S
PORT WASHINGTON  2200   54     180/  5/  7 1014.2F
ATWATER BUOY     2300   53     170/ 10/ 12 1014.7F
MILWAUKEE LAKESH 2300   52     150/ 12/ 13   N/A
S MID LAKE BUOY  2250   53 54  140/  6/  6 1014.8F   0
KENOSHA   LAKESH 2300   53     160/  7/  8 1014.2S
$$

TC  - TEMPERATURE IN CELSIUS
VSB - VISIBILITY IN STATUTE MILES
WCI - WIND CHILL INDEX
HX  - HEAT INDEX




USA.gov is the U.S. government's official web portal to all federal, state and local government web resources and services.